Date String (YYYY-MM-DD hh:mm:ss) UTC,Instrument flags,absolute air pressure of the measurement (hPa),sample flow rate (lpm),inlet stack bypass flow (lpm),air temperature of the measurement (°C),ambient temperature measured by the external sensor (°C),aerosol sample conditioner tube jacket temperature (°C),OPC LED temperature (°C),internal box temperature (°C),relative humidity of the measurement (%),span deviation,mass concentration of particles derived from Lorenz-Mie calculation of OPC scattering (μg/m³),mass concentration of particles derived from Lorenz-Mie calculation of OPC scattering (μg/m³),mass concentration of particles derived from Lorenz-Mie calculation of OPC scattering (μg/m³)
DateTimeUTC,F1_M11,P_M11,Q1_M11,Q2_M11,T1_M11,T2_M11,T3_M11,T4_M11,T5_M11,U1_M11,ZSPAN_M11,X0_M11,X2_M11,X1_M11
2023-10-09 12:00:00,SystemResetWarning,0829.9,5.00,000.00,028.5,026.9,000.0,037.0,030.1,12.1,0000.0,0008.37,0003.18,0002.45
2023-10-09 12:01:00,SystemResetWarning,0829.9,5.00,000.00,028.5,026.9,000.0,037.0,030.1,12.1,0000.0,0008.12,0003.15,0002.44
2023-10-09 12:02:00,SystemResetWarning,0829.9,5.01,000.00,028.5,026.9,000.0,037.0,030.1,12.1,0000.0,0007.84,0003.13,0002.43
2023-10-09 12:03:00,SystemResetWarning,0829.9,5.00,000.00,028.5,026.9,000.0,037.0,030.1,12.1,0000.0,0007.54,0003.15,0002.43
2023-10-09 12:04:00,SystemResetWarning,0830.0,5.00,000.00,028.5,026.9,000.0,037.0,030.1,12.1,0000.0,0007.29,0003.13,0002.41
2023-10-09 12:05:00,SystemResetWarning,0829.9,4.99,000.00,028.5,026.9,000.0,037.0,030.1,12.1,0000.0,0006.99,0003.13,0002.40
2023-10-09 12:06:00,SystemResetWarning,0829.9,4.99,000.00,028.5,026.9,000.0,037.0,030.1,12.1,0000.0,0006.82,0003.13,0002.38
2023-10-09 12:07:00,SystemResetWarning,0829.9,4.99,000.00,028.5,026.9,000.0,037.0,030.1,12.1,0000.0,0007.64,0003.10,0002.36
2023-10-09 12:08:00,SystemResetWarning,0829.9,5.00,000.00,028.5,026.9,000.0,037.0,030.1,12.1,0000.0,0006.98,0003.09,0002.34
2023-10-09 12:09:00,SystemResetWarning,0829.8,5.01,000.00,028.5,026.9,000.0,037.0,030.1,12.1,0000.0,0006.83,0003.05,0002.33
2023-10-09 12:10:00,SystemResetWarning,0829.8,5.01,000.00,028.5,026.9,000.0,037.0,030.1,12.1,0000.0,0007.79,0003.10,0002.33
2023-10-09 12:11:00,SystemResetWarning,0829.9,5.00,000.00,028.5,026.9,000.0,037.0,030.1,12.1,0000.0,0007.83,0003.10,0002.33
2023-10-09 12:12:00,SystemResetWarning,0829.9,5.01,000.00,028.5,026.9,000.0,037.0,030.1,12.2,0000.0,0007.84,0003.12,0002.34
2023-10-09 12:13:00,SystemResetWarning,0829.9,5.00,000.00,028.5,026.9,000.0,036.9,030.1,12.2,0000.0,0008.36,0003.16,0002.36
2023-10-09 12:14:00,SystemResetWarning,0829.8,5.00,000.00,028.5,026.9,000.0,037.0,030.1,12.2,0000.0,0008.45,0003.14,0002.35
2023-10-09 12:15:00,SystemResetWarning,0829.9,5.00,000.00,028.5,026.9,000.0,037.0,030.1,12.2,0000.0,0008.60,0003.14,0002.36
2023-10-09 12:16:00,SystemResetWarning,0829.9,5.00,000.00,028.5,026.9,000.0,036.9,030.1,12.2,0000.0,0008.93,0003.17,0002.37
2023-10-09 12:17:00,SystemResetWarning,0829.9,5.00,000.00,028.5,026.9,000.0,036.9,030.1,12.2,0000.0,0008.86,0003.13,0002.39
2023-10-09 12:18:00,SystemResetWarning,0829.9,5.00,000.00,028.5,026.9,000.0,036.9,030.1,12.2,0000.0,0008.22,0003.13,0002.39
2023-10-09 12:19:00,SystemResetWarning,0829.9,5.00,000.00,028.5,026.9,000.0,036.9,030.1,12.2,0000.0,0008.17,0003.14,0002.41
2023-10-09 12:20:00,SystemResetWarning,0829.9,5.00,000.00,028.5,026.9,000.0,036.9,030.1,12.2,0000.0,0008.28,0003.16,0002.42
2023-10-09 12:21:00,SystemResetWarning,0829.9,5.00,000.00,028.5,026.9,000.0,036.9,030.1,12.2,0000.0,0008.22,0003.16,0002.41
2023-10-09 12:22:00,SystemResetWarning,0829.9,5.00,000.00,028.5,026.9,000.0,036.9,030.1,12.2,0000.0,0009.05,0003.19,0002.42
2023-10-09 12:23:00,SystemResetWarning,0829.9,5.00,000.00,028.5,026.9,000.0,036.9,030.1,12.1,0000.0,0009.45,0003.19,0002.43
2023-10-09 12:24:00,SystemResetWarning,0829.9,5.00,000.00,028.5,026.9,000.0,036.9,030.1,12.2,0000.0,0009.43,0003.20,0002.43
2023-10-09 12:25:00,SystemResetWarning,0829.9,5.01,000.00,028.5,026.9,000.0,036.9,030.1,12.2,0000.0,0009.24,0003.22,0002.44
2023-10-09 12:26:00,SystemResetWarning,0829.9,5.00,000.00,028.5,026.9,000.0,036.9,030.1,12.3,0000.0,0009.04,0003.24,0002.46
2023-10-09 12:27:00,SystemResetWarning,0829.9,5.01,000.00,028.5,027.0,000.0,036.9,030.1,12.2,0000.0,0008.48,0003.19,0002.46
2023-10-09 12:28:00,SystemResetWarning,0829.9,4.99,000.00,028.5,027.0,000.0,036.9,030.1,12.2,0000.0,0008.30,0003.19,0002.46
2023-10-09 12:29:00,SystemResetWarning,0830.0,4.99,000.00,028.5,027.0,000.0,036.9,030.1,12.2,0000.0,0008.21,0003.18,0002.47
2023-10-09 12:30:00,SystemResetWarning,0829.9,5.00,000.00,028.5,027.0,000.0,036.9,030.1,12.2,0000.0,0008.22,0003.17,0002.47
2023-10-09 12:31:00,SystemResetWarning,0829.9,5.00,000.00,028.5,027.0,000.0,036.9,030.1,12.2,0000.0,0008.24,0003.18,0002.48
2023-10-09 12:32:00,SystemResetWarning,0829.9,5.01,000.00,028.5,027.0,000.0,036.9,030.1,12.2,0000.0,0007.89,0003.18,0002.51
2023-10-09 12:33:00,SystemResetWarning,0829.9,5.01,000.00,028.5,027.0,000.0,036.9,030.1,12.1,0000.0,0007.07,0003.14,0002.51
2023-10-09 12:34:00,SystemResetWarning,0829.9,5.00,000.00,028.5,027.0,000.0,036.9,030.1,12.1,0000.0,0008.82,0003.14,0002.52
2023-10-09 12:35:00,SystemResetWarning,0829.9,5.00,000.00,028.5,027.0,000.0,036.9,030.1,12.0,0000.0,0008.41,0003.13,0002.53
2023-10-09 12:36:00,SystemResetWarning,0830.0,5.00,000.00,028.5,027.0,000.0,036.9,030.1,12.0,0000.0,0008.53,0003.13,0002.55
2023-10-09 12:37:00,SystemResetWarning,0830.0,4.99,000.00,028.5,027.0,000.0,036.9,030.1,12.1,0000.0,0009.01,0003.14,0002.57
2023-10-09 12:38:00,SystemResetWarning,0830.0,4.99,000.00,028.5,027.0,000.0,036.9,030.1,12.1,0000.0,0009.04,0003.15,0002.57
2023-10-09 12:39:00,SystemResetWarning,0830.0,4.99,000.00,028.5,027.0,000.0,036.9,030.1,12.1,0000.0,0009.09,0003.17,0002.58
2023-10-09 12:40:00,SystemResetWarning,0830.0,5.01,000.00,028.5,027.0,000.0,036.9,030.1,12.1,0000.0,0009.85,0003.20,0002.60
2023-10-09 12:41:00,SystemResetWarning,0830.0,5.01,000.00,028.5,027.0,000.0,036.9,030.1,12.1,0000.0,0010.23,0003.21,0002.62
2023-10-09 12:42:00,SystemResetWarning,0830.0,5.01,000.00,028.5,027.0,000.0,036.9,030.1,12.1,0000.0,0010.15,0003.21,0002.62
2023-10-09 12:43:00,SystemResetWarning,0830.0,4.99,000.00,028.5,027.0,000.0,036.9,030.1,12.1,0000.0,0010.17,0003.22,0002.63
2023-10-09 12:44:00,SystemResetWarning,0830.0,4.99,000.00,028.5,027.0,000.0,036.9,030.1,12.1,0000.0,0010.48,0003.22,0002.64
2023-10-09 12:45:00,SystemResetWarning,0830.0,5.00,000.00,028.5,027.0,000.0,036.9,030.1,12.1,0000.0,0009.22,0003.22,0002.64
2023-10-09 12:46:00,SystemResetWarning,0830.0,5.00,000.00,028.5,027.0,000.0,036.9,030.1,12.1,0000.0,0008.60,0003.23,0002.64
2023-10-09 12:47:00,SystemResetWarning,0830.0,5.00,000.00,028.5,027.0,000.0,036.9,030.1,12.2,0000.0,0009.23,0003.22,0002.63
2023-10-09 12:48:00,SystemResetWarning,0830.0,5.00,000.00,028.5,027.0,000.0,036.9,030.1,12.3,0000.0,0008.58,0003.20,0002.61
2023-10-09 12:49:00,SystemResetWarning,0830.0,5.01,000.00,028.5,027.0,000.0,036.9,030.1,12.3,0000.0,0008.68,0003.20,0002.61
2023-10-09 12:50:00,SystemResetWarning,0830.0,5.01,000.00,028.5,027.0,000.0,036.9,030.1,12.4,0000.0,0008.95,0003.21,0002.61
2023-10-09 12:51:00,SystemResetWarning,0830.0,5.00,000.00,028.5,027.0,000.0,036.9,030.1,12.4,0000.0,0008.66,0003.22,0002.62
2023-10-09 12:52:00,SystemResetWarning,0830.0,5.00,000.00,028.5,027.0,000.0,036.9,030.1,12.4,0000.0,0007.89,0003.21,0002.60
2023-10-09 12:53:00,SystemResetWarning,0830.0,4.99,000.00,028.5,027.0,000.0,036.9,030.1,12.4,0000.0,0008.18,0003.22,0002.61
2023-10-09 12:54:00,SystemResetWarning,0830.0,5.00,000.00,028.5,027.0,000.0,036.9,030.1,12.3,0000.0,0008.53,0003.21,0002.61
2023-10-09 12:55:00,SystemResetWarning,0830.0,5.00,000.00,028.5,027.0,000.0,036.9,030.1,12.3,0000.0,0008.35,0003.23,0002.61
2023-10-09 12:56:00,SystemResetWarning,0830.0,5.00,000.00,028.5,027.0,000.0,036.9,030.1,12.3,0000.0,0008.55,0003.27,0002.61
2023-10-09 12:57:00,SystemResetWarning,0830.0,5.00,000.00,028.5,026.9,000.0,036.9,030.1,12.2,0000.0,0008.73,0003.26,0002.61
2023-10-09 12:58:00,SystemResetWarning,0830.0,5.00,000.00,028.5,026.9,000.0,036.9,030.1,12.2,0000.0,0008.24,0003.27,0002.60
2023-10-09 12:59:00,SystemResetWarning,0830.0,5.01,000.00,028.5,026.9,000.0,036.9,030.1,12.3,0000.0,0008.46,0003.30,0002.63
